User: anonymous   Login
Location: *
(51.5000°N, 0.1100°W)
Time: 02:47:07
(UTC+00:00)
Language:

SL-16 R/B - Orbit

View from above orbital plane
View from above orbital plane
View from above satellite
View from above satellite

Ground track
Ground track

The orbit data is extracted from the following two-line orbital elements,

1 27006U 01056F   24200.87063321  .00000010  00000-0  62503-4 0  9996
2 27006  99.6898 348.2814 0015349  86.8300  35.4053 13.71034366131215
Epoch (UTC): 18 July 2024 20:53:42
Eccentricity: 0.0015349
inclination: 99.6898°
perigee height: 984 km
apogee height: 1007 km
right ascension of ascending node: 348.2814°
argument of perigee: 86.8300°
revolutions per day: 13.71034366
mean anomaly at epoch: 35.4053°
orbit number at epoch: 13121

The dashed part of the orbit path shows where the satellite is in the earth's shadow,  

DLR